Weather reports worldwide

Advertisment
Lamezia Terme, Italy (16362): temperature & dewpoint: 26.09.2020 00:00:00 - 02.10.2020 00:00:00 (CEST)Lamezia Terme, Italy (16362): wind speed: 26.09.2020 00:00:00 - 02.10.2020 00:00:00 (CEST)Lamezia Terme, Italy (16362): wind direction: 26.09.2020 00:00:00 - 02.10.2020 00:00:00 (CEST)Lamezia Terme, Italy (16362): reduced air pressure: 26.09.2020 00:00:00 - 02.10.2020 00:00:00 (CEST)Lamezia Terme, Italy (16362): visibility: 26.09.2020 00:00:00 - 02.10.2020 00:00:00 (CEST)Lamezia Terme, Italy (16362): precipitation: 26.09.2020 00:00:00 - 02.10.2020 00:00:00 (CEST)
Date & Time tt [°C] td [°C] ff [km/h] ff [kn] dd ppp [hPa] vv [km] rr [mm]
02.10.2020 00:00:00 16,0 13,0 8 4 ENE - 10 -
01.10.2020 23:00:00 15,3 12,9 9 5 E 1010,9 10 0,0
01.10.2020 22:00:00 16,0 14,0 9 5 E - 10 -
01.10.2020 21:00:00 18,0 14,0 4 2 ENE - 10 -
01.10.2020 20:00:00 18,9 14,5 4 2 S 1010,2 10 -
01.10.2020 19:00:00 20,0 15,0 4 2 - - 10 -
01.10.2020 18:00:00 22,0 13,0 11 6 SW - 10 -
01.10.2020 17:00:00 23,5 13,2 15 8 WSW 1009,9 10 0,0
01.10.2020 16:00:00 24,0 13,0 18 10 W - 10 -
01.10.2020 15:00:00 25,0 12,0 16 9 W - 10 -
01.10.2020 14:00:00 24,3 14,2 18 10 W 1010,8 10 -
01.10.2020 13:00:00 23,0 15,0 15 8 W - 10 -
01.10.2020 12:00:00 23,0 15,0 13 7 WSW - 10 -
01.10.2020 11:00:00 22,9 15,2 11 6 WSW 1011,8 10 0,0
01.10.2020 10:00:00 22,0 15,0 9 5 SW - 10 -
01.10.2020 09:00:00 18,0 15,0 8 4 E - 10 -
01.10.2020 08:00:00 13,9 13,0 8 4 E 1011,7 10 -
01.10.2020 07:00:00 12,0 12,0 9 5 ENE - 10 -
01.10.2020 06:00:00 12,0 11,0 9 5 E - 10 -
01.10.2020 05:00:00 12,7 12,1 8 4 ENE 1011,7 10 0,0
01.10.2020 04:00:00 13,0 13,0 5 3 ENE - 10 -
01.10.2020 03:00:00 14,0 13,0 8 4 E - 10 -
01.10.2020 02:00:00 13,4 12,8 5 3 E 1012,9 - -
01.10.2020 01:00:00 14,0 13,0 5 3 ENE - 10 -
01.10.2020 00:00:00 15,0 14,0 11 6 E - 10 -
30.09.2020 23:00:00 14,7 13,7 9 5 E 1013,8 10 0,0
30.09.2020 22:00:00 16,0 14,0 8 4 ENE - 10 -
30.09.2020 21:00:00 17,0 14,0 5 3 NE - 10 -
30.09.2020 20:00:00 18,6 15,2 5 3 WSW 1013,7 10 -
30.09.2020 19:00:00 20,0 15,0 9 5 WSW - 10 -
30.09.2020 18:00:00 22,0 15,0 15 8 W - 10 -
30.09.2020 17:00:00 22,6 15,0 21 11 W 1014,0 10 0,0
30.09.2020 16:00:00 23,0 15,0 21 11 W - 10 -
30.09.2020 15:00:00 24,0 15,0 18 10 W - 10 -
30.09.2020 14:00:00 23,4 14,6 21 11 WSW 1015,3 10 -
30.09.2020 13:00:00 24,0 14,0 21 11 SW - 10 -
30.09.2020 12:00:00 24,0 14,0 15 8 WSW - 10 -
30.09.2020 11:00:00 22,9 14,0 13 7 WSW 1016,4 10 0,0
30.09.2020 10:00:00 22,0 14,0 13 7 SW - 10 -
30.09.2020 09:00:00 18,0 14,0 4 2 - - 10 -
30.09.2020 08:00:00 13,7 12,3 8 4 E 1016,5 10 -
30.09.2020 07:00:00 12,0 11,0 8 4 ENE - 10 -
30.09.2020 06:00:00 11,0 10,0 9 5 E - 10 -
30.09.2020 05:00:00 11,6 10,2 8 4 ENE 1016,6 10 0,0
30.09.2020 04:00:00 12,0 10,0 9 5 ENE - 10 -
30.09.2020 03:00:00 13,0 11,0 8 4 ENE - 10 -
30.09.2020 02:00:00 12,6 11,4 8 4 E 1017,5 10 -
30.09.2020 01:00:00 13,0 12,0 11 6 E - 10 -
30.09.2020 00:00:00 13,0 12,0 8 4 E - 10 -
29.09.2020 23:00:00 14,4 13,1 4 2 NNE 1018,7 10 0,0
29.09.2020 22:00:00 16,0 14,0 4 2 E - 10 -
29.09.2020 21:00:00 17,0 14,0 2 1 - - 10 -
29.09.2020 20:00:00 19,9 13,8 8 4 NW 1018,4 10 -
29.09.2020 19:00:00 21,0 14,0 16 9 W - 10 -
29.09.2020 18:00:00 22,0 14,0 26 14 W - 10 -
29.09.2020 17:00:00 22,8 14,5 26 14 W 1017,7 10 0,0
29.09.2020 16:00:00 23,0 14,0 26 14 W - 10 -
29.09.2020 15:00:00 23,0 14,0 26 14 W - 10 -
29.09.2020 14:00:00 22,6 14,7 24 13 WNW 1018,3 10 -
29.09.2020 13:00:00 24,0 14,0 22 12 W - 10 -
29.09.2020 12:00:00 23,0 15,0 22 12 W - 10 -
29.09.2020 11:00:00 22,0 15,2 16 9 W 1018,6 10 0,0
29.09.2020 10:00:00 22,0 15,0 21 11 W - 10 -
29.09.2020 09:00:00 21,0 16,0 16 9 W - 10 -
29.09.2020 08:00:00 17,8 16,3 8 4 W 1017,0 10 -
29.09.2020 07:00:00 19,0 17,0 11 6 W - 10 -
29.09.2020 06:00:00 17,0 16,0 9 5 S - 10 -
29.09.2020 05:00:00 16,6 15,6 8 4 SSE 1016,5 8 0,0
29.09.2020 04:00:00 18,0 15,0 11 6 SSW - 10 -
29.09.2020 03:00:00 18,0 14,0 13 7 SW - 10 -
29.09.2020 02:00:00 18,7 14,1 18 10 W 1016,6 10 -
29.09.2020 01:00:00 18,0 14,0 8 4 W - 10 -
29.09.2020 00:00:00 17,0 15,0 39 21 WNW - 7 -
28.09.2020 23:00:00 21,8 13,8 28 15 WSW 1016,1 10 0,0
28.09.2020 22:00:00 22,0 14,0 29 16 W - 10 -
28.09.2020 21:00:00 22,0 13,0 31 17 W - 10 -
28.09.2020 20:00:00 21,5 12,2 34 18 W 1015,4 10 -
28.09.2020 19:00:00 21,0 14,0 31 17 W - 10 -
28.09.2020 18:00:00 21,0 14,0 24 13 WNW - 10 -
28.09.2020 17:00:00 19,6 14,1 26 14 WSW 1015,0 10 0,0
28.09.2020 16:00:00 23,0 13,0 34 18 W - 10 -
28.09.2020 15:00:00 24,0 13,0 34 18 W - 10 -
28.09.2020 14:00:00 24,7 12,9 35 19 W 1015,2 10 -
28.09.2020 13:00:00 22,0 14,0 31 17 WSW - 10 -
28.09.2020 12:00:00 24,0 13,0 34 18 WSW - 10 -
28.09.2020 11:00:00 23,5 13,9 28 15 WSW 1014,3 10 0,0
28.09.2020 10:00:00 23,0 11,0 24 13 WSW - 10 -
28.09.2020 09:00:00 22,0 12,0 22 12 WSW - 10 -
28.09.2020 08:00:00 21,7 10,5 24 13 SW 1012,6 10 -
28.09.2020 07:00:00 21,0 11,0 22 12 WSW - 10 -
28.09.2020 06:00:00 21,0 12,0 21 11 WSW - 10 -
28.09.2020 05:00:00 20,7 11,7 24 13 WSW 1010,5 10 0,0
28.09.2020 04:00:00 21,0 12,0 28 15 W - 10 -
28.09.2020 03:00:00 21,0 13,0 24 13 WSW - 10 -
28.09.2020 02:00:00 20,9 12,3 29 16 WSW 1010,5 10 -
28.09.2020 01:00:00 20,0 16,0 34 18 W - 10 -
28.09.2020 00:00:00 21,0 17,0 28 15 W - 10 -
27.09.2020 23:00:00 19,0 18,0 5 3 S 1010,4 10 0,0
27.09.2020 22:00:00 19,0 18,0 18 10 SW - 6 -
27.09.2020 21:00:00 23,0 15,0 5 3 SE - 10 -
27.09.2020 20:00:00 22,8 14,4 15 8 E 1007,3 10 -
27.09.2020 19:00:00 23,0 14,0 9 5 E - 10 -
27.09.2020 18:00:00 25,0 12,0 2 1 - - 10 -
27.09.2020 17:00:00 25,7 10,5 8 4 SSE 1007,4 10 0,0
27.09.2020 16:00:00 27,0 10,0 9 5 S - 10 -
27.09.2020 15:00:00 26,0 11,0 9 5 ENE - 10 -
27.09.2020 14:00:00 25,9 9,6 4 2 - 1009,3 10 -
27.09.2020 13:00:00 25,0 12,0 5 3 - - 10 -
27.09.2020 12:00:00 24,0 14,0 11 6 SW - 10 -
27.09.2020 11:00:00 21,8 12,8 18 10 WSW 1010,4 10 0,0
27.09.2020 10:00:00 22,0 14,0 11 6 - - 10 -
27.09.2020 09:00:00 19,0 14,0 9 5 ESE - 10 -
27.09.2020 08:00:00 18,7 14,2 2 1 - 1008,8 10 -
27.09.2020 07:00:00 20,0 14,0 28 15 W - 10 -
27.09.2020 06:00:00 20,0 12,0 24 13 WSW - 10 -
27.09.2020 05:00:00 19,6 13,0 26 14 WSW 1007,9 10 0,0
27.09.2020 04:00:00 17,0 13,0 8 4 S - 10 -
27.09.2020 03:00:00 17,0 13,0 8 4 SE - 10 -
27.09.2020 02:00:00 15,2 13,2 5 3 ENE 1008,6 10 -
27.09.2020 01:00:00 19,0 11,0 21 11 WSW - 10 -
27.09.2020 00:00:00 17,0 14,0 13 7 W - 10 -
26.09.2020 23:00:00 17,6 13,2 13 7 W 1008,3 10 0,0
26.09.2020 22:00:00 18,0 13,0 35 19 W - 10 -
26.09.2020 21:00:00 - - - - - - - -
26.09.2020 20:00:00 19,6 11,2 31 17 W 1006,0 10 -
26.09.2020 19:00:00 18,0 12,0 26 14 WSW - 10 -
26.09.2020 18:00:00 20,0 10,0 28 15 W - 10 -
26.09.2020 17:00:00 20,1 11,3 28 15 W 1005,2 10 0,0
26.09.2020 16:00:00 19,0 12,0 26 14 WNW - 10 -
26.09.2020 15:00:00 15,0 14,0 28 15 W - 5 -
26.09.2020 14:00:00 19,7 9,8 37 20 WSW 1003,9 10 -
26.09.2020 13:00:00 20,0 12,0 42 23 W - 10 -
26.09.2020 12:00:00 16,0 12,0 52 28 W - 7 -
26.09.2020 11:00:00 20,1 11,6 46 25 WNW 1003,4 10 0,0
26.09.2020 10:00:00 22,0 14,0 41 22 WSW - 10 -
26.09.2020 09:00:00 21,0 12,0 26 14 WSW - 10 -
26.09.2020 08:00:00 19,9 12,5 16 9 W 1002,7 10 -
26.09.2020 07:00:00 19,0 14,0 29 16 W - 10 -
26.09.2020 06:00:00 18,0 15,0 37 20 WNW - 10 -
26.09.2020 05:00:00 21,3 12,1 31 17 WSW 1002,3 10 0,0
26.09.2020 04:00:00 21,0 14,0 37 20 W - 10 -
26.09.2020 03:00:00 21,0 15,0 28 15 W - 10 -
26.09.2020 02:00:00 22,9 13,9 39 21 W 1004,2 10 -
26.09.2020 01:00:00 22,0 19,0 28 15 WSW - 10 -
26.09.2020 00:00:00 23,0 18,0 35 19 W - 10 -

tt = temperature
td = dewpoint
ff = wind speed
dd = wind direction
ppp = reduced air pressure
vv = visibility
rr = precipitation

Next stations